Regional Weather Roundup
Issued by NWS New Orleans/Baton Rouge, LA

Current Version | Previous Version | Text Only | Print | Product List | Glossary On
Versions: 1 2 3 4 5 6 7 8 9 10 11 12 13 14 15 16 17 18 19 20 21 22 23 24 25 26 27 28 29 30 31 32 33 34 35 36 37 38 39 40 41 42 43 44 45 46 47 48 49 50
000
ASUS44 KLIX 172011
RWRLIX
NEW ORLEANS REGIONAL WEATHER ROUNDUP
NATIONAL WEATHER SERVICE NEW ORLEANS LA
300 PM CDT WED JUL 17 2019

NOTE: "FAIR" INDICATES FEW OR NO CLOUDS BELOW 12,000 FEET WITH NO
      SIGNIFICANT WEATHER AND/OR OBSTRUCTIONS TO VISIBILITY.
      SKY/WX - SKY CONDITION AND SIGNIFICANT WEATHER.
      TMP - AIR TEMPERATURE.     DP    - DEWPOINT TEMPERATURE.
      RH  - RELATIVE HUMIDITY.   PRES  - PRESSURE.
      HI  - HEAT INDEX.          WCI   - WIND CHILL INDEX.

*  THESE STATIONS ARE NOT NWS OR FAA STATIONS AND ARE NOT UNDER
   NWS QUALITY CONTROL.

LAZ038-040-048-061>063-065>067-069-172100-
SOUTHEAST LOUISIANA

CITY           SKY/WX    TMP DP  RH WIND       PRES   REMARKS
N.O. INTL ARPT PTSUNNY   90  75  61 NW9       30.10F HX 100
N.O. LAKEFRONT FAIR      90  76  63 NE8       30.11F HX 101
N.O. DOWNTOWN* CLOUDY    91  76  61 NE6       30.11F HX 103
RESERVE*       CLOUDY    95  77  55 CALM      30.10F HX 110
SLIDELL        FAIR      92  68  45 W6        30.10F HX  96
BATON ROUGE    FAIR      93  73  52 S3        30.08F HX 102
BOOTHVILLE     FAIR      88  77  69 NE7       30.11F HX 100
BELLE CHASSE   PTSUNNY   91  77  63 S9        30.10F HX 104
BOGALUSA*      FAIR      92  69  45 CALM      30.11F HX  97
GALLIANO*      MOCLDY    89  75  62 SE7       30.11F HX  99
NEW ROADS*     MOCLDY   N/A N/A N/A S5        30.09F
GONZALES*      FAIR      92  72  52 SW6       30.09F HX  99
HAMMOND*       PTSUNNY   90  73  58 SW5       30.10F HX  98
HOUMA*         SUNNY     90  75  62 SE9       30.11F HX 100
PORT FOURCHON* PTCLDY    88  79  74 VRB7      30.12F HX 102

$$

MSZ070-080>082-172100-
SOUTHERN MISSISSIPPI

CITY           SKY/WX    TMP DP  RH WIND       PRES   REMARKS
MCCOMB         FAIR      91  71  51 SW7       30.11F HX  97
GULFPORT       FAIR      90  74  59 S8        30.10F HX  99
BILOXI         FAIR      89  75  63 SW8       30.10F HX  99
PASCAGOULA     FAIR      94  71  47 SW5       30.10F HX 101
STENNIS ARPT*  MOSUNNY   93  73  52 SE6       30.10F HX 102

$$

COASTAL OBSERVATIONS
LAKE AND NEARSHORE STATIONS

STATION/POSITION TIME  SKY/WX   TEMP    WIND        PRES    WAVE
                                AIR SEA DIR/SP/G            HT/PER
                 (UTC)          (F)     (DEG/KT/KT) (MB)    (FT/S)
WAVELAND YACHT   1930                   170/  9/ 12 1020.1
GRAND ISLE       1924            86 84  140/  5/  6 1020.4
SOUTHWEST PASS   1930                   130/  3/  5 1020.8
NEW CANAL        1924            85 83   50/  9/  9 1019.0
SHELL BEACH      1924            89 84   CALM  /  2 1020.2

OFFSHORE STATIONS

STATION/POSITION TIME  SKY/WX   TEMP    WIND        PRES    WAVE
                                AIR SEA DIR/SP/G            HT/PER
                 (UTC)          (F)     (DEG/KT/KT) (MB)    (FT/S)
64 S DAUPHIN ISL 1950            85 85  100/  2/  4 1020.0    2/ 6

$$




USA.gov is the U.S. government's official web portal to all federal, state and local government web resources and services.